Date String (YYYY-MM-DD hh:mm:ss) UTC,Instrument flags,absolute air pressure of the measurement (hPa),sample flow rate (lpm),inlet stack bypass flow (lpm),air temperature of the measurement (°C),ambient temperature measured by the external sensor (°C),aerosol sample conditioner tube jacket temperature (°C),OPC LED temperature (°C),internal box temperature (°C),relative humidity of the measurement (%),span deviation,mass concentration of particles derived from Lorenz-Mie calculation of OPC scattering (μg/m³),mass concentration of particles derived from Lorenz-Mie calculation of OPC scattering (μg/m³),mass concentration of particles derived from Lorenz-Mie calculation of OPC scattering (μg/m³)
DateTimeUTC,F1_M11,P_M11,Q1_M11,Q2_M11,T1_M11,T2_M11,T3_M11,T4_M11,T5_M11,U1_M11,ZSPAN_M11,X2_M11,X0_M11,X1_M11
2023-08-15 17:00:00,SystemResetWarning,0838.3,5.00,000.00,028.9,026.6,000.0,037.3,030.5,24.8,0001.4,0006.29,0015.60,0005.25
2023-08-15 17:01:00,SystemResetWarning,0838.4,5.01,000.00,028.9,026.9,000.0,037.3,030.6,24.6,0001.8,0006.21,0014.91,0005.23
2023-08-15 17:02:00,SystemResetWarning,0838.3,5.00,000.00,028.9,027.2,000.0,037.4,030.6,24.1,0001.8,0006.14,0014.03,0005.23
2023-08-15 17:03:00,SystemResetWarning,0838.3,5.00,000.00,029.0,027.4,000.0,037.4,030.7,24.2,0002.0,0006.16,0014.75,0005.24
2023-08-15 17:04:00,SystemResetWarning,0838.3,4.99,000.00,029.0,027.6,000.0,037.4,030.8,24.2,0001.9,0006.18,0014.62,0005.24
2023-08-15 17:05:00,SystemResetWarning,0838.3,4.99,000.00,029.1,027.7,000.0,037.4,030.8,24.6,0001.8,0006.21,0014.98,0005.24
2023-08-15 17:06:00,SystemResetWarning,0838.3,4.99,000.00,029.1,026.6,000.0,037.3,030.6,24.4,0001.6,0006.24,0014.89,0005.25
2023-08-15 17:07:00,SystemResetWarning,0838.3,5.00,000.00,029.0,025.2,000.0,037.2,030.3,24.2,0002.2,0006.26,0015.81,0005.24
2023-08-15 17:08:00,SystemResetWarning,0838.3,5.01,000.00,028.9,025.2,000.0,037.2,030.2,24.5,0002.1,0006.25,0016.54,0005.25
2023-08-15 17:09:00,SystemResetWarning,0838.2,5.01,000.00,028.9,025.5,000.0,037.2,030.2,24.5,0001.8,0006.24,0016.45,0005.26
2023-08-15 17:10:00,SystemResetWarning,0838.2,5.00,000.00,028.8,025.9,000.0,037.2,030.3,24.5,0001.9,0006.22,0017.11,0005.24
2023-08-15 17:11:00,SystemResetWarning,0838.2,4.99,000.00,028.8,026.3,000.0,037.3,030.4,24.6,0001.9,0006.20,0017.46,0005.23
2023-08-15 17:12:00,SystemResetWarning,0838.2,5.00,000.00,028.9,026.6,000.0,037.3,030.5,24.2,0002.0,0006.23,0017.58,0005.23
2023-08-15 17:13:00,SystemResetWarning,0838.2,5.01,000.00,028.9,027.0,000.0,037.3,030.6,24.1,0002.4,0006.27,0017.57,0005.24
2023-08-15 17:14:00,SystemResetWarning,0838.2,5.00,000.00,028.9,027.2,000.0,037.3,030.6,24.3,0002.4,0006.24,0017.01,0005.23
2023-08-15 17:15:00,SystemResetWarning,0838.3,5.00,000.00,029.0,027.5,000.0,037.4,030.7,24.0,0002.6,0006.20,0016.26,0005.23
2023-08-15 17:16:00,SystemResetWarning,0838.3,4.99,000.00,029.0,027.7,000.0,037.4,030.8,24.0,0002.7,0006.16,0016.53,0005.22
2023-08-15 17:17:00,SystemResetWarning,0838.3,4.99,000.00,029.0,027.6,000.0,037.4,030.8,24.3,0003.0,0006.15,0016.43,0005.21
2023-08-15 17:18:00,SystemResetWarning,0838.3,4.99,000.00,029.0,026.1,000.0,037.3,030.5,24.6,0002.7,0006.14,0015.59,0005.23
2023-08-15 17:19:00,SystemResetWarning,0838.2,5.00,000.00,028.9,025.0,000.0,037.2,030.2,24.5,0002.6,0006.18,0014.73,0005.24
2023-08-15 17:20:00,SystemResetWarning,0838.2,5.02,000.00,028.9,025.2,000.0,037.1,030.2,24.8,0002.9,0006.17,0014.39,0005.23
2023-08-15 17:21:00,SystemResetWarning,0838.2,5.00,000.00,028.8,025.5,000.0,037.2,030.2,24.7,0002.4,0006.23,0014.25,0005.25
2023-08-15 17:22:00,SystemResetWarning,0838.2,5.00,000.00,028.8,025.9,000.0,037.2,030.3,25.0,0002.6,0006.27,0014.80,0005.28
2023-08-15 17:23:00,SystemResetWarning,0838.2,5.00,000.00,028.8,026.3,000.0,037.2,030.4,25.0,0002.3,0006.30,0015.37,0005.29
2023-08-15 17:24:00,SystemResetWarning,0838.2,5.00,000.00,028.8,026.7,000.0,037.3,030.5,25.1,0001.6,0006.26,0015.15,0005.28
2023-08-15 17:25:00,SystemResetWarning,0838.2,5.00,000.00,028.9,027.0,000.0,037.3,030.6,25.0,0000.6,0006.32,0014.89,0005.28
2023-08-15 17:26:00,SystemResetWarning,0838.2,5.00,000.00,028.9,027.3,000.0,037.3,030.6,25.0,0000.3,0006.38,0015.18,0005.28
2023-08-15 17:27:00,SystemResetWarning,0838.1,5.00,000.00,029.0,027.5,000.0,037.3,030.7,24.9,0000.3,0006.40,0014.81,0005.27
2023-08-15 17:28:00,SystemResetWarning,0838.2,5.00,000.00,029.0,027.6,000.0,037.3,030.8,24.8,0000.3,0006.42,0014.45,0005.26
2023-08-15 17:29:00,SystemResetWarning,0838.2,4.98,000.00,029.0,026.4,000.0,037.2,030.5,24.5,0000.6,0006.40,0014.31,0005.25
2023-08-15 17:30:00,SystemResetWarning,0838.2,5.00,000.00,028.9,025.0,000.0,037.1,030.2,24.7,0001.1,0006.37,0014.16,0005.24
2023-08-15 17:31:00,SystemResetWarning,0838.2,5.01,000.00,028.8,025.1,000.0,037.1,030.1,25.4,0001.1,0006.37,0014.38,0005.22
2023-08-15 17:32:00,SystemResetWarning,0838.2,5.00,000.00,028.8,025.4,000.0,037.1,030.1,25.2,0001.3,0006.31,0014.32,0005.19
2023-08-15 17:33:00,SystemResetWarning,0838.2,5.00,000.00,028.7,025.8,000.0,037.2,030.2,24.5,0001.3,0006.26,0014.26,0005.16
2023-08-15 17:34:00,SystemResetWarning,0838.2,5.00,000.00,028.8,026.2,000.0,037.2,030.3,24.6,0001.3,0006.19,0013.43,0005.14
2023-08-15 17:35:00,SystemResetWarning,0838.2,5.00,000.00,028.8,026.6,000.0,037.2,030.4,24.5,0001.3,0006.17,0013.40,0005.12
2023-08-15 17:36:00,SystemResetWarning,0838.2,4.99,000.00,028.8,026.9,000.0,037.2,030.5,24.0,0001.8,0006.15,0014.23,0005.13
2023-08-15 17:37:00,SystemResetWarning,0838.2,5.00,000.00,028.9,027.2,000.0,037.3,030.6,23.8,0001.5,0006.09,0014.52,0005.11
2023-08-15 17:38:00,SystemResetWarning,0838.2,5.00,000.00,028.9,027.4,000.0,037.3,030.7,23.6,0001.1,0006.05,0014.23,0005.09
2023-08-15 17:39:00,SystemResetWarning,0838.1,5.00,000.00,029.0,027.6,000.0,037.3,030.7,23.6,0000.7,0005.97,0014.35,0005.07
2023-08-15 17:40:00,SystemResetWarning,0838.1,4.99,000.00,029.0,026.7,000.0,037.2,030.5,23.8,0000.7,0005.92,0014.40,0005.04
2023-08-15 17:41:00,SystemResetWarning,0838.2,5.00,000.00,028.9,025.1,000.0,037.1,030.2,23.9,0000.5,0005.91,0014.38,0005.01
2023-08-15 17:42:00,SystemResetWarning,0838.2,5.01,000.00,028.8,025.0,000.0,037.0,030.1,23.8,0000.5,0005.88,0013.93,0004.99
2023-08-15 17:43:00,SystemResetWarning,0838.2,5.02,000.00,028.8,025.3,000.0,037.0,030.1,23.6,0000.3,0005.84,0013.60,0004.98
2023-08-15 17:44:00,SystemResetWarning,0838.2,5.00,000.00,028.7,025.7,000.0,037.1,030.2,23.6,-000.2,0005.78,0013.53,0004.97
2023-08-15 17:45:00,SystemResetWarning,0838.2,5.00,000.00,028.7,026.1,000.0,037.1,030.3,23.6,-000.4,0005.80,0013.66,0004.95
2023-08-15 17:46:00,SystemResetWarning,0838.2,4.99,000.00,028.8,026.5,000.0,037.2,030.4,23.6,0000.0,0005.80,0013.67,0004.93
2023-08-15 17:47:00,SystemResetWarning,0838.2,5.00,000.00,028.8,026.8,000.0,037.2,030.5,23.8,0000.0,0005.78,0013.49,0004.90
2023-08-15 17:48:00,SystemResetWarning,0838.2,5.00,000.00,028.8,027.1,000.0,037.2,030.6,23.2,0000.0,0005.76,0012.67,0004.90
2023-08-15 17:49:00,SystemResetWarning,0838.2,5.01,000.00,028.9,027.4,000.0,037.2,030.6,21.9,0000.0,0005.78,0012.62,0004.91
2023-08-15 17:50:00,SystemResetWarning,0838.2,5.00,000.00,028.9,027.6,000.0,037.3,030.7,21.6,0000.0,0005.81,0012.94,0004.92
2023-08-15 17:51:00,SystemResetWarning,0838.2,4.98,000.00,028.9,027.0,000.0,037.2,030.6,21.5,0000.0,0005.82,0013.02,0004.94
2023-08-15 17:52:00,SystemResetWarning,0838.1,5.00,000.00,028.9,025.4,000.0,037.1,030.3,21.7,0000.0,0005.84,0013.42,0004.94
2023-08-15 17:53:00,SystemResetWarning,0838.0,5.02,000.00,028.8,024.9,000.0,037.0,030.2,22.7,0000.0,0005.86,0014.36,0004.95
2023-08-15 17:54:00,SystemResetWarning,0838.0,5.00,000.00,028.8,025.3,000.0,037.0,030.1,23.5,0000.0,0005.90,0015.06,0004.97
2023-08-15 17:55:00,SystemResetWarning,0838.0,5.00,000.00,028.7,025.6,000.0,037.0,030.2,22.2,0000.0,0005.98,0015.00,0004.98
2023-08-15 17:56:00,SystemResetWarning,0838.0,5.00,000.00,028.7,026.1,000.0,037.1,030.3,22.4,0000.0,0006.02,0015.22,0005.00
2023-08-15 17:57:00,SystemResetWarning,0838.1,5.00,000.00,028.8,026.5,000.0,037.1,030.4,23.1,0000.0,0006.02,0015.10,0005.01
2023-08-15 17:58:00,SystemResetWarning,0838.1,5.00,000.00,028.8,026.8,000.0,037.1,030.4,22.9,0000.0,0006.03,0016.05,0005.02
2023-08-15 17:59:00,SystemResetWarning,0838.0,5.00,000.00,028.8,027.1,000.0,037.2,030.5,22.2,0000.0,0006.05,0017.72,0005.01
